Home > Weather > Medellin > Past weeks

Flag for Colombia Weather for the Past 2 Weeks in Medellin, Colombia

Now
68 °F

Scattered clouds.


Feels Like: 68 °F
Forecast: N/A
Wind: 7 mph from East

Location: Rionegro / J. M. Cordova

Current Time: May 5, 2016 at 6:05:44 PM

Latest Report: May 5, 2016 at 5:00 PM


Visibility: N/A

Pressure: 30.21 "Hg (25.43 "Hg at 1479m altitude)

Humidity: 69%

Dew Point: 57 °F

Location of MedellinLocation

Historic Weather in Medellin — Graph

°F

Medellin Temperature Yesterday

Maximum temperature yesterday: 66 °F (at 2:00 PM)
Minimum temperature yesterday: 57 °F (at 4:00 AM)
Average temperature yesterday: 61 °F

High & Low Weather Summary for the Past Weeks

 TemperatureHumidityPressure
High77 °F (Apr 21, 1:00 PM)100% (Apr 21, 3:00 AM)30.40 "Hg (Apr 21, 3:00 AM)
Low52 °F (May 5, 6:00 AM)41% (Apr 21, 12:00 PM)30.17 "Hg (Apr 26, 3:00 PM)
Average63 °F84%30.28 "Hg
* Reported Apr 20 5:00 PM — May 5 5:00 PM, Medellin, Weather by CustomWeather, © 2016

Note: Actual official high and low records may vary slightly from our data, if they occured in-between our weather recording intervals... More about our weather records

Advertising

Medellin Weather History for the Previous 24 Hours

Scroll right to see more
 ConditionsComfort  
Time TempWeatherWind HumidityBarometerVisibility
5:00 PM
Thu, May 5
68 °FScattered clouds.7 mph69%30.21 "HgN/A
3:00 PM73 °FPassing clouds.9 mph57%30.22 "HgN/A
2:00 PM73 °FPassing clouds.12 mph57%30.25 "HgN/A
1:00 PM73 °FPassing clouds.12 mph53%30.28 "HgN/A
12:00 PM72 °FPassing clouds.12 mph61%30.30 "HgN/A
11:00 AM72 °FScattered clouds.9 mph65%30.32 "HgN/A
10:00 AM68 °FPassing clouds.5 mph69%30.33 "HgN/A
9:00 AM64 °FPassing clouds.2 mph78%30.33 "HgN/A
8:00 AM59 °FPassing clouds.2 mph88%30.33 "HgN/A
7:00 AM55 °FFog.No wind88%30.32 "HgN/A
6:00 AM52 °FFog.3 mph94%30.29 "HgN/A
5:00 AM54 °FPassing clouds.2 mph94%30.27 "HgN/A
4:00 AM54 °FPassing clouds.No wind100%30.27 "HgN/A
3:00 AM55 °FPassing clouds.No wind94%30.30 "HgN/A
2:00 AM57 °FPassing clouds.N/A94%30.31 "HgN/A
1:00 AM57 °FPassing clouds.No wind94%30.32 "HgN/A
12:00 AM57 °FPassing clouds.No wind88%30.33 "HgN/A
11:00 PM
Wed, May 4
57 °FPassing clouds.No wind94%30.33 "HgN/A
10:00 PM57 °FPassing clouds.2 mph100%30.34 "HgN/A
9:00 PM59 °FPassing clouds.2 mph94%30.31 "HgN/A
8:00 PM61 °FPartly cloudy.No wind83%30.30 "HgN/A
7:00 PM61 °FPassing clouds.3 mph88%30.27 "HgN/A
6:00 PM64 °FPartly sunny.5 mph73%30.25 "HgN/A
Weather by CustomWeather, © 2016

See weather overviewHow to use our weather pages